This is the latest recevied weather packets stored in our database for station/object KJ4UBX-11. If no packets are shown the sender has not sent any weather packets the latest 10 day(s).
| Time | Temp. | Humidity | Pressure | Rain* | Wind** | Luminosity | Snow |
|---|---|---|---|---|---|---|---|
| 1777468297 | 10.56° C | 93% | 1018.3 hPa | - | - | - | - |
| 1777467714 | 10.56° C | 92% | 1018.2 hPa | - | - | - | - |
| 1777467131 | 10.56° C | 95% | 1018.4 hPa | - | - | - | - |
| 1777466549 | 10.56° C | 95% | 1018.4 hPa | - | - | - | - |
| 1777465965 | 10° C | 95% | 1018.3 hPa | - | - | - | - |
| 1777465383 | 10° C | 97% | 1018.3 hPa | - | - | - | - |
| 1777464798 | 10° C | 95% | 1018.3 hPa | - | - | - | - |
| 1777464216 | 10° C | 94% | 1018.3 hPa | - | - | - | - |
| 1777463633 | 10° C | 94% | 1018.1 hPa | - | - | - | - |
| 1777463050 | 10° C | 94% | 1018.1 hPa | - | - | - | - |
| 1777462468 | 10° C | 90% | 1018 hPa | - | - | - | - |
| 1777461884 | 10° C | 89% | 1017.7 hPa | - | - | - | - |
| 1777461301 | 9.44° C | 90% | 1017.4 hPa | - | - | - | - |
| 1777460717 | 9.44° C | 92% | 1017.2 hPa | - | - | - | - |
| 1777460134 | 9.44° C | 92% | 1017.4 hPa | - | - | - | - |
| 1777459553 | 9.44° C | 97% | 1017.3 hPa | - | - | - | - |
| 1777458969 | 9.44° C | 100% | 1017.2 hPa | - | - | - | - |
| 1777458386 | 9.44° C | 100% | 1017 hPa | - | - | - | - |
| 1777457803 | 8.89° C | 100% | 1016.8 hPa | - | - | - | - |
| 1777457219 | 8.89° C | 100% | 1016.9 hPa | - | - | - | - |
| 1777456637 | 9.44° C | 100% | 1016.7 hPa | - | - | - | - |
| 1777456054 | 8.89° C | 100% | 1017 hPa | - | - | - | - |
| 1777455471 | 8.89° C | 100% | 1016.8 hPa | - | - | - | - |
| 1777454888 | 9.44° C | 100% | 1017 hPa | - | - | - | - |
| 1777454305 | 9.44° C | 97% | 1017.2 hPa | - | - | - | - |
* Rain since midnight (hover to see other rain measurements)
** Current wind speed in m/s (hover to see current wind gust speed)